Regional Weather Roundup
Issued by NWS

Home | Current Version | Previous Version | Text Only | Print | Product List | Glossary On
Versions: 1 2 3 4 5 6 7 8 9 10 11 12 13 14 15 16 17 18 19 20 21 22 23 24 25 26 27 28 29 30 31 32 33 34 35 36 37 38 39 40 41 42 43 44 45 46 47 48 49 50
000
ASUS43 KLSX 261610
RWRMO

WEATHER SUMMARY FOR MISSOURI
NATIONAL WEATHER SERVICE SPRINGFIELD MO
1100 AM CDT THU APR 26 2018

NOTE: "FAIR" INDICATES FEW OR NO CLOUDS BELOW 12,000 FEET WITH NO
       SIGNIFICANT WEATHER AND/OR OBSTRUCTIONS TO VISIBILITY.
       CURRENT SKY AND/OR WEATHER CONDITIONS ARE NOT AVAILABLE FOR
       CHILLICOTHE AND FARMINGTON.

MOZ001>031-035>038-043-044-053-054-261700-
...NORTHERN AND WESTERN MISSOURI...

CITY           SKY/WX    TMP DP  RH WIND       PRES   REMARKS
KANSAS CTY INT PTSUNNY   56  42  59 W5        30.02S
KANSAS C DTWN  SUNNY     57  41  55 VRB3      30.01F
LEE`S SUMMIT   SUNNY     57  44  62 CALM      30.02F
ST JOSEPH      SUNNY     56  45  66 MISG      30.01S
CHILLICOTHE      N/A     60  44  55 SW5       30.00S
KIRKSVILLE     CLOUDY    63  33  32 VRB7      29.98S

$$
MOZ066>068-077>081-088>096-101>105-261700-
...SOUTHWEST MISSOURI...

CITY           SKY/WX    TMP DP  RH WIND       PRES   REMARKS
SPRINGFIELD    CLOUDY    52  46  80 N7        30.01R
JOPLIN         CLOUDY    51  47  86 N6        30.06R
BRANSON        CLOUDY    50  50 100 NW8       30.01R

$$
MOZ032>034-039>042-045>050-055>058-069>072-261700-
...CENTRAL MISSOURI...

CITY           SKY/WX    TMP DP  RH WIND       PRES   REMARKS
COLUMBIA       SUNNY     61  43  51 N6        29.98F
JEFFERSON CITY SUNNY     57  47  69 SW3       29.99F
ROLLA          MOSUNNY   56  46  69 N8        30.00R
SEDALIA        CLOUDY    58  45  62 NW6       30.01F
WHITEMAN AFB   PTSUNNY   56  42  58 N5        29.98S
WARRENSBURG    SUNNY     55  43  62 NW3       30.02S
OSAGE BEACH    CLOUDY    58  48  69 VRB3      30.01S

$$
MOZ051-052-059>065-261700-
...EAST CENTRAL MISSOURI...

CITY           SKY/WX    TMP DP  RH WIND       PRES   REMARKS
ST LOUIS INTL  MOSUNNY   62  38  40 SE5       29.97F
SPIRIT OF STL  MOSUNNY   63  42  46 CALM      29.96F
ST CHARLES     SUNNY     63  37  38 NW3       29.97F

$$
MOZ072>076-082>087-097>100-106>115-261700-
...SOUTH CENTRAL AND SOUTHEAST MISSOURI...

CITY           SKY/WX    TMP DP  RH WIND       PRES   REMARKS
CAPE GIRARDEAU FAIR      58  42  55 N12       29.93R
FARMINGTON     CLOUDY    53  47  79 N6        29.97S
POPLAR BLUFF   CLOUDY    57  48  72 N13       29.92S
WEST PLAINS    CLOUDY    54  46  74 N9G18     29.98S

$$




USA.gov is the U.S. government's official web portal to all federal, state and local government web resources and services.